Flag Weather past 2 weeks in Guangzhou, Guangdong, China

Now
70 °F

Fog.


Feels Like: 70 °F
Forecast: 68 / 82 °F
Wind: 1 mph from East

Location: Canton Airport

Current Time: Nov 23, 2014 at 2:05:24 AM

Latest Report: Nov 23, 2014 at 1:30 AM


Visibility: 3 mi

Pressure: 30.04 "Hg

Humidity: 83%

Dew point: 64 °F

Location of GuangzhouLocation

Historic Weather in Guangzhou — Graph

°F

Guangzhou temperature yesterday

Maximum temperature yesterday: 82 °F (at 12:30 PM)
Minimum temperature yesterday: 64 °F (at 3:00 AM)
Average temperature yesterday: 73 °F

Past Weeks' High & Low Weather Summary

 TemperatureHumidityPressure
High82 °F (Nov 22, 12:30 PM)100% (Nov 8, 3:00 AM)30.27 "Hg (Nov 8, 3:00 AM)
Low59 °F (Nov 19, 4:30 AM)41% (Nov 19, 1:00 PM)29.92 "Hg (Nov 22, 3:00 PM)
Average68 °F70%30.10 "Hg
* Reported Nov 8 1:00 AM — Nov 23 1:00 AM, Guangzhou, Weather by CustomWeather, © 2014

Note: Actual official high and low records may vary slightly from our data, if they occured in-between our weather recording intervals... More about our weather records

Advertising

Guangzhou weather history for previous 24 hours

 ConditionsComfort  
Time TempWeatherWind HumidityBarometerVisibility
1:00 AM
Nov 23
70 °FFog.3 mph83%30.04 "Hg3 mi
12:30 AM70 °FFog.No wind83%30.04 "Hg3 mi
12:00 AM70 °FFog.1 mph83%30.04 "Hg3 mi
11:30 PM
Nov 22
72 °FClear.1 mph78%30.04 "Hg4 mi
11:00 PM73 °FClear.No wind74%30.04 "Hg10 mi
10:30 PM73 °FClear.No wind74%30.04 "Hg10 mi
10:00 PM73 °FClear.No wind74%30.01 "Hg10 mi
9:30 PM73 °FClear.1 mph74%30.01 "Hg10 mi
9:00 PM73 °FClear.No wind74%30.01 "Hg10 mi
8:30 PM73 °FClear.3 mph74%30.01 "Hg10 mi
8:00 PM75 °FClear.1 mph69%29.98 "Hg10 mi
7:30 PM75 °FClear.No wind65%29.98 "Hg10 mi
7:00 PM75 °FClear.No wind65%29.98 "Hg10 mi
6:30 PM77 °FClear.1 mph57%29.95 "Hg10 mi
6:00 PM77 °FClear.1 mph57%29.95 "Hg10 mi
5:30 PM79 °FSunny.3 mph54%29.95 "Hg10 mi
5:00 PM81 °FScattered clouds.3 mph51%29.95 "HgN/A
4:30 PM81 °FScattered clouds.1 mph48%29.95 "HgN/A
4:00 PM82 °FScattered clouds.3 mph45%29.95 "HgN/A
3:30 PM82 °FScattered clouds.1 mph48%29.92 "HgN/A
3:00 PM82 °FScattered clouds.3 mph45%29.92 "HgN/A
2:30 PM82 °FScattered clouds.1 mph48%29.95 "HgN/A
2:00 PM82 °FPassing clouds.3 mph48%29.95 "HgN/A
1:30 PM82 °FPassing clouds.3 mph45%29.95 "HgN/A
1:00 PM82 °FSunny.3 mph48%29.98 "Hg10 mi
12:30 PM82 °FSunny.1 mph48%30.01 "Hg10 mi
12:00 PM81 °FClear.3 mph51%30.01 "Hg6 mi
11:30 AM79 °FClear.6 mph54%30.04 "Hg6 mi
11:00 AM77 °FClear.3 mph57%30.04 "Hg6 mi
10:30 AM75 °FClear.3 mph61%30.07 "Hg5 mi
10:00 AM75 °FClear.3 mph57%30.07 "Hg4 mi
9:30 AM72 °FClear.6 mph69%30.07 "Hg4 mi
9:00 AM70 °FHaze.6 mph73%30.07 "Hg3 mi
8:30 AM68 °FFog.3 mph78%30.07 "Hg2 mi
8:00 AM66 °FFog.6 mph83%30.04 "Hg2 mi
7:30 AM66 °FFog.6 mph83%30.04 "Hg2 mi
7:00 AM64 °FFog.3 mph83%30.04 "Hg2 mi
6:30 AM64 °FFog.3 mph83%30.01 "Hg3 mi
6:00 AM64 °FFog.3 mph83%30.01 "Hg3 mi
5:30 AM64 °FFog.3 mph83%30.01 "Hg3 mi
5:00 AM64 °FFog.3 mph88%30.01 "Hg3 mi
4:30 AM64 °FFog.1 mph88%30.01 "Hg3 mi
4:00 AM64 °FClear.No wind83%30.01 "Hg4 mi
3:30 AM64 °FClear.No wind88%30.01 "Hg4 mi
3:00 AM64 °FClear.No wind88%30.01 "Hg4 mi
2:30 AM66 °FClear.No wind83%30.01 "Hg4 mi
2:00 AM66 °FClear.No wind83%30.01 "Hg4 mi
Weather by CustomWeather, © 2014

See weather overviewHow to use our weather pages